| time (UTC) | temp F | wind direction | speed MPH | gust MPH | rain 1hr in | rain 24hr in | rain mn in | humidity % | barometer mb |
| 20260901031600 | 69 | 0 | 0.0 | 2.0 | 0.00 | 0.03 | 0.03 | 96 | 1010.7 |
| 20260901030058 | 69 | 76 | 0.0 | 2.0 | 0.00 | 0.03 | 0.03 | 96 | 1010.7 |
| 20260901024559 | 69 | 0 | 0.0 | 0.0 | 0.00 | 0.03 | 0.03 | 96 | 1010.6 |
| 20260901023048 | 70 | 0 | 0.0 | 0.0 | 0.00 | 0.03 | 0.03 | 96 | 1010.5 |
| 20260901021601 | 70 | 0 | 0.0 | 0.0 | 0.00 | 0.03 | 0.03 | 95 | 1010.5 |
| 20260901020108 | 71 | 0 | 0.0 | 0.0 | 0.00 | 0.03 | 0.03 | 95 | 1010.4 |
| 20260901014550 | 71 | 76 | 1.0 | 4.0 | 0.00 | 0.03 | 0.03 | 95 | 1010.5 |
| 20260901013059 | 71 | 76 | 1.0 | 3.0 | 0.00 | 0.03 | 0.03 | 94 | 1010.3 |
| 20260901011555 | 72 | 0 | 1.0 | 2.0 | 0.00 | 0.03 | 0.03 | 93 | 1010.2 |
| 20260901010052 | 72 | 0 | 0.0 | 7.0 | 0.00 | 0.03 | 0.03 | 93 | 1010.2 |
| 20260901004607 | 73 | 98 | 4.0 | 7.0 | 0.00 | 0.03 | 0.03 | 92 | 1010.0 |
| 20260901003053 | 75 | 111 | 4.0 | 8.0 | 0.00 | 0.03 | 0.03 | 89 | 1010.0 |
| 20260901001556 | 77 | 130 | 5.0 | 9.0 | 0.00 | 0.03 | 0.03 | 83 | 1009.8 |
| 20260901000109 | 80 | 145 | 3.0 | 7.0 | 0.00 | 0.03 | 0.03 | 75 | 1009.7 |
| 20260831234555 | 83 | 170 | 2.0 | 4.0 | 0.00 | 0.03 | 0.03 | 69 | 1009.7 |
| 20260831233057 | 84 | 0 | 0.0 | 0.0 | 0.00 | 0.03 | 0.03 | 69 | 1009.6 |
| 20260831231555 | 81 | 0 | 0.0 | 0.0 | 0.00 | 0.03 | 0.03 | 74 | 1009.5 |
| 20260831230049 | 79 | 264 | 3.0 | 7.0 | 0.00 | 0.03 | 0.03 | 77 | 1009.6 |
| 20260831224546 | 80 | 288 | 7.0 | 10.0 | 0.00 | 0.03 | 0.03 | 75 | 1009.7 |
| 20260831223055 | 80 | 284 | 7.0 | 12.0 | 0.00 | 0.03 | 0.03 | 74 | 1009.5 |
| 20260831221555 | 78 | 301 | 7.0 | 10.0 | 0.00 | 0.03 | 0.03 | 79 | 1009.5 |
| 20260831220050 | 78 | 269 | 10.0 | 13.0 | 0.00 | 0.03 | 0.03 | 80 | 1009.5 |
| 20260831214601 | 77 | 288 | 11.0 | 14.0 | 0.00 | 0.03 | 0.03 | 83 | 1009.3 |
| 20260831213059 | 77 | 295 | 9.0 | 12.0 | 0.00 | 0.03 | 0.03 | 86 | 1009.2 |
| 20260831211627 | 76 | 309 | 8.0 | 12.0 | 0.00 | 0.03 | 0.03 | 87 | 1009.2 |
| 20260831210047 | 76 | 327 | 4.0 | 12.0 | 0.00 | 0.03 | 0.03 | 88 | 1009.2 |
| 20260831204544 | 76 | 319 | 11.0 | 14.0 | 0.00 | 0.03 | 0.03 | 88 | 1009.2 |
| 20260831203055 | 75 | 311 | 5.0 | 10.0 | 0.00 | 0.03 | 0.03 | 90 | 1009.0 |
| 20260831201550 | 75 | 300 | 7.0 | 9.0 | 0.00 | 0.03 | 0.03 | 90 | 1009.1 |
| 20260831200047 | 75 | 280 | 6.0 | 8.0 | 0.00 | 0.03 | 0.03 | 90 | 1009.0 |
| 20260831194635 | 75 | 281 | 5.0 | 7.0 | 0.00 | 0.03 | 0.03 | 90 | 1009.0 |
| 20260831193054 | 75 | 0 | 0.0 | 0.0 | 0.00 | 0.03 | 0.03 | 92 | 1009.1 |
| 20260831191549 | 74 | 0 | 0.0 | 0.0 | 0.00 | 0.03 | 0.03 | 96 | 1008.9 |
| 20260831190123 | 73 | 0 | 0.0 | 0.0 | 0.00 | 0.03 | 0.03 | 98 | 1008.9 |
| 20260831184605 | 72 | 0 | 0.0 | 0.0 | 0.00 | 0.03 | 0.03 | 97 | 1009.0 |
| 20260831183058 | 71 | 0 | 0.0 | 0.0 | 0.00 | 0.03 | 0.03 | 97 | 1009.3 |
| 20260831181559 | 71 | 0 | 0.0 | 0.0 | 0.00 | 0.03 | 0.03 | 94 | 1009.3 |
| 20260831180055 | 72 | 0 | 0.0 | 0.0 | 0.00 | 0.03 | 0.03 | 94 | 1009.1 |
| 20260831174549 | 72 | 0 | 0.0 | 0.0 | 0.00 | 0.03 | 0.03 | 94 | 1009.1 |
| 20260831173059 | 72 | 0 | 0.0 | 0.0 | 0.00 | 0.03 | 0.03 | 94 | 1008.9 |
| 20260831171554 | 71 | 0 | 0.0 | 0.0 | 0.00 | 0.03 | 0.03 | 96 | 1008.9 |
| 20260831170048 | 71 | 0 | 0.0 | 0.0 | 0.00 | 0.03 | 0.03 | 96 | 1008.8 |
| 20260831164554 | 70 | 0 | 0.0 | 0.0 | 0.00 | 0.04 | 0.03 | 95 | 1008.8 |
| 20260831163056 | 70 | 0 | 0.0 | 0.0 | 0.00 | 0.04 | 0.03 | 95 | 1008.7 |
| 20260831161555 | 70 | 0 | 0.0 | 2.0 | 0.00 | 0.04 | 0.03 | 95 | 1008.6 |
| 20260831160049 | 70 | 263 | 2.0 | 4.0 | 0.00 | 0.04 | 0.03 | 95 | 1008.7 |
| 20260831154659 | 71 | 251 | 2.0 | 4.0 | 0.00 | 0.04 | 0.03 | 94 | 1008.6 |
| 20260831153054 | 72 | 185 | 3.0 | 5.0 | 0.00 | 0.04 | 0.03 | 93 | 1008.3 |
| 20260831151548 | 72 | 171 | 2.0 | 5.0 | 0.00 | 0.04 | 0.03 | 93 | 1008.3 |
| 20260831150047 | 72 | 182 | 3.0 | 6.0 | 0.00 | 0.04 | 0.03 | 93 | 1008.2 |
| 20260831144556 | 72 | 166 | 4.0 | 7.0 | 0.00 | 0.04 | 0.03 | 94 | 1008.0 |
| 20260831143109 | 71 | 163 | 3.0 | 6.0 | 0.00 | 0.04 | 0.03 | 95 | 1007.7 |
| 20260831141613 | 71 | 130 | 4.0 | 7.0 | 0.00 | 0.04 | 0.03 | 97 | 1007.5 |
| 20260831140056 | 70 | 132 | 3.0 | 7.0 | 0.00 | 0.04 | 0.03 | 98 | 1007.5 |
| 20260831134545 | 70 | 117 | 3.0 | 6.0 | 0.00 | 0.04 | 0.03 | 98 | 1007.7 |
| 20260831133054 | 69 | 9 | 1.0 | 4.0 | 0.00 | 0.04 | 0.03 | 97 | 1007.9 |
| 20260831131554 | 70 | 9 | 0.0 | 0.0 | 0.00 | 0.04 | 0.03 | 98 | 1007.7 |
| 20260831130054 | 70 | 0 | 0.0 | 3.0 | 0.00 | 0.04 | 0.03 | 99 | 1007.5 |
| 20260831124608 | 69 | 92 | 3.0 | 6.0 | 0.00 | 0.04 | 0.03 | 99 | 1007.3 |
| 20260831123056 | 69 | 32 | 2.0 | 5.0 | 0.00 | 0.04 | 0.03 | 99 | 1007.7 |
| 20260831121549 | 69 | 12 | 3.0 | 5.0 | 0.00 | 0.04 | 0.03 | 99 | 1007.8 |
| 20260831120051 | 69 | 136 | 2.0 | 4.0 | 0.00 | 0.04 | 0.03 | 98 | 1007.6 |
| 20260831114557 | 69 | 92 | 3.0 | 4.0 | 0.00 | 0.04 | 0.03 | 99 | 1007.5 |
| 20260831113056 | 69 | 0 | 0.0 | 4.0 | 0.00 | 0.04 | 0.03 | 99 | 1007.5 |
| 20260831111550 | 69 | 88 | 2.0 | 3.0 | 0.00 | 0.04 | 0.03 | 98 | 1007.3 |
| 20260831110045 | 69 | 55 | 1.0 | 5.0 | 0.00 | 0.04 | 0.03 | 98 | 1007.7 |
| 20260831104544 | 69 | 352 | 2.0 | 4.0 | 0.00 | 0.04 | 0.03 | 98 | 1007.9 |
| 20260831103058 | 69 | 74 | 1.0 | 6.0 | 0.00 | 0.04 | 0.03 | 98 | 1007.5 |
| 20260831101612 | 69 | 91 | 3.0 | 4.0 | 0.00 | 0.04 | 0.03 | 98 | 1007.7 |
| 20260831100057 | 69 | 111 | 2.0 | 4.0 | 0.00 | 0.04 | 0.03 | 98 | 1007.9 |
| 20260831094556 | 69 | 74 | 2.0 | 4.0 | 0.00 | 0.04 | 0.03 | 98 | 1008.0 |
| 20260831093054 | 69 | 74 | 1.0 | 5.0 | 0.00 | 0.04 | 0.03 | 98 | 1008.0 |
| 20260831091549 | 69 | 73 | 3.0 | 6.0 | 0.00 | 0.04 | 0.03 | 98 | 1008.1 |
| 20260831090103 | 69 | 72 | 2.0 | 6.0 | 0.00 | 0.04 | 0.03 | 98 | 1007.9 |
| 20260831084556 | 69 | 89 | 3.0 | 6.0 | 0.00 | 0.04 | 0.03 | 98 | 1007.7 |
| 20260831083052 | 69 | 79 | 3.0 | 6.0 | 0.00 | 0.04 | 0.03 | 98 | 1007.8 |
| 20260831081551 | 69 | 107 | 3.0 | 6.0 | 0.00 | 0.04 | 0.03 | 98 | 1007.7 |
| 20260831080047 | 69 | 109 | 5.0 | 10.0 | 0.00 | 0.04 | 0.03 | 98 | 1008.1 |
| 20260831074558 | 68 | 130 | 4.0 | 9.0 | 0.00 | 0.04 | 0.03 | 99 | 1008.1 |
| 20260831073049 | 68 | 105 | 5.0 | 9.0 | 0.01 | 0.04 | 0.03 | 98 | 1008.3 |
| 20260831071545 | 68 | 103 | 4.0 | 8.0 | 0.02 | 0.04 | 0.03 | 98 | 1008.8 |
| 20260831070059 | 68 | 92 | 4.0 | 9.0 | 0.03 | 0.04 | 0.03 | 98 | 1009.1 |
| 20260831064556 | 68 | 99 | 6.0 | 8.0 | 0.03 | 0.04 | 0.03 | 97 | 1009.5 |
| 20260831063047 | 68 | 55 | 4.0 | 11.0 | 0.01 | 0.02 | 0.01 | 96 | 1010.1 |
| 20260831061558 | 69 | 47 | 3.0 | 6.0 | 0.01 | 0.02 | 0.01 | 96 | 1010.4 |
| 20260831060106 | 69 | 43 | 2.0 | 6.0 | 0.00 | 0.01 | 0.00 | 95 | 1010.2 |
| 20260831054554 | 69 | 87 | 2.0 | 4.0 | 0.00 | 0.01 | 0.00 | 95 | 1010.2 |
| 20260831053046 | 69 | 87 | 2.0 | 5.0 | 0.00 | 0.01 | 0.00 | 95 | 1010.0 |
| 20260831051604 | 68 | 88 | 2.0 | 6.0 | 0.00 | 0.01 | 0.00 | 95 | 1010.1 |
| 20260831050103 | 69 | 55 | 3.0 | 8.0 | 0.00 | 0.01 | 0.00 | 95 | 1010.5 |
| 20260831044548 | 69 | 59 | 4.0 | 10.0 | 0.00 | 0.01 | 0.01 | 94 | 1010.6 |
| 20260831043057 | 69 | 49 | 3.0 | 9.0 | 0.00 | 0.01 | 0.01 | 93 | 1010.6 |
| 20260831041551 | 70 | 67 | 2.0 | 5.0 | 0.00 | 0.01 | 0.01 | 93 | 1010.7 |
| 20260831040058 | 69 | 63 | 6.0 | 10.0 | 0.00 | 0.01 | 0.01 | 93 | 1010.9 |
| 20260831034555 | 69 | 82 | 6.0 | 9.0 | 0.00 | 0.01 | 0.01 | 93 | 1011.0 |
| 20260831033055 | 69 | 115 | 4.0 | 12.0 | 0.00 | 0.01 | 0.01 | 94 | 1011.1 |